FW8355 Weather Reports


Display with metric or nautical units.
time (UTC)temp
F
wind
direction
speed
MPH
gust
MPH
rain 1hr
in
rain 24hr
in
rain mn
in
humidity
%
barometer
mb
20260508004056 62 0.0 0.0 0.00 0.06 0.00 75 1007.5
20260508003016 63 0.0 0.0 0.00 0.06 0.00 74 1007.6
20260508002016 63 0.0 0.0 0.00 0.06 0.00 74 1007.8
20260508001016 63 338 1.0 3.0 0.00 0.06 0.00 75 1007.8
20260508000016 63 45 2.0 3.0 0.00 0.07 0.00 74 1007.9
20260507235017 64 45 1.0 4.0 0.00 0.08 0.00 70 1008.0
20260507234016 64 23 1.0 2.0 0.00 0.09 0.00 68 1007.9
20260507233016 65 270 1.0 4.0 0.00 0.10 0.00 69 1008.0
20260507232016 66 270 1.0 6.0 0.00 0.11 0.00 69 1008.2
20260507231016 65 248 2.0 5.0 0.00 0.11 0.00 69 1008.2
20260507230016 65 248 2.0 6.0 0.00 0.12 0.00 69 1008.4
20260507225016 66 293 1.0 5.0 0.00 0.12 0.00 68 1008.4
20260507224016 66 248 1.0 2.0 0.00 0.12 0.00 69 1008.5
20260507223036 66 248 1.0 2.0 0.00 0.13 0.00 67 1008.6
20260507222016 67 203 2.0 6.0 0.00 0.13 0.00 62 1008.7
20260507221036 68 0.0 1.0 0.00 0.13 0.00 57 1008.4
20260507220016 68 23 4.0 7.0 0.00 0.13 0.13 57 1008.4
20260507215017 68 0.0 1.0 0.00 0.13 0.13 57 1008.4
20260507214057 68 45 3.0 7.0 0.00 0.14 0.13 57 1008.4
20260507213036 67 68 3.0 6.0 0.00 0.14 0.13 59 1008.4
20260507212017 68 45 3.0 7.0 0.00 0.15 0.13 59 1008.2
20260507211017 68 68 4.0 7.0 0.00 0.15 0.13 57 1008.4
20260507210019 69 68 5.0 9.0 0.00 0.15 0.13 54 1008.2
20260507205016 70 90 5.0 14.0 0.00 0.15 0.13 51 1008.1
20260507204016 71 90 4.0 14.0 0.00 0.15 0.13 46 1008.0
20260507203037 71 23 3.0 10.0 0.00 0.15 0.13 43 1007.7
20260507202017 70 68 6.0 11.0 0.00 0.16 0.13 46 1007.9
20260507201037 71 68 8.0 15.0 0.00 0.16 0.13 45 1007.7
20260507200017 71 45 7.0 13.0 0.00 0.16 0.13 50 1007.7
20260507195016 71 45 4.0 12.0 0.00 0.17 0.13 58 1008.0
20260507194016 71 68 5.0 11.0 0.00 0.17 0.13 59 1008.2
20260507193016 71 68 7.0 11.0 0.00 0.19 0.13 57 1008.4
20260507192016 72 90 4.0 8.0 0.00 0.19 0.13 54 1008.2
20260507191016 71 90 2.0 7.0 0.00 0.19 0.13 57 1007.9
20260507190017 70 0.0 2.0 0.00 0.19 0.13 66 1008.0
20260507185016 70 23 2.0 3.0 0.00 0.19 0.13 67 1007.6
20260507184036 70 23 2.0 6.0 0.00 0.19 0.13 69 1007.5
20260507183016 69 0 1.0 3.0 0.00 0.19 0.13 70 1007.2
20260507182016 70 0.0 1.0 0.00 0.19 0.13 69 1007.4
20260507181016 70 0.0 1.0 0.00 0.19 0.13 68 1007.4
20260507180038 70 0.0 2.0 0.00 0.19 0.13 67 1007.5
20260507175037 71 0.0 0.0 0.00 0.19 0.13 64 1007.6
20260507174036 71 23 1.0 3.0 0.00 0.19 0.13 63 1007.7
20260507173016 71 0.0 0.0 0.00 0.19 0.13 63 1007.7
20260507172016 72 0.0 1.0 0.00 0.19 0.13 62 1007.7
20260507171016 72 90 1.0 3.0 0.00 0.19 0.13 60 1007.6
20260507170017 73 68 1.0 2.0 0.00 0.19 0.13 59 1007.7
20260507165016 74 90 1.0 4.0 0.00 0.19 0.13 58 1007.7
20260507164016 75 113 2.0 5.0 0.00 0.19 0.13 55 1007.6
20260507163016 76 135 1.0 4.0 0.00 0.19 0.13 54 1007.6
20260507162016 77 203 3.0 6.0 0.00 0.19 0.13 53 1007.5
20260507161016 77 203 4.0 8.0 0.00 0.19 0.13 52 1007.6
20260507160016 79 203 3.0 6.0 0.00 0.19 0.13 51 1007.8
20260507155016 79 203 4.0 8.0 0.00 0.19 0.13 50 1007.9
20260507154016 80 225 2.0 5.0 0.00 0.19 0.13 50 1007.9
20260507153016 80 203 1.0 4.0 0.00 0.19 0.13 50 1007.9
20260507152036 80 225 3.0 7.0 0.00 0.19 0.13 50 1007.9
20260507151017 81 225 2.0 6.0 0.00 0.19 0.13 49 1008.0
20260507150016 81 203 3.0 6.0 0.00 0.19 0.13 48 1008.1
20260507145057 81 90 4.0 8.0 0.00 0.19 0.13 44 1008.1
20260507144015 80 68 2.0 7.0 0.00 0.19 0.13 42 1008.2
20260507143016 80 158 1.0 4.0 0.00 0.19 0.13 43 1008.2
20260507142016 80 68 2.0 6.0 0.00 0.19 0.13 41 1008.3
20260507141015 80 23 4.0 8.0 0.00 0.19 0.13 42 1008.5
20260507140016 80 113 1.0 3.0 0.00 0.19 0.13 46 1008.5
20260507135016 80 0 3.0 7.0 0.00 0.19 0.13 45 1008.5
20260507134016 80 68 2.0 6.0 0.00 0.19 0.13 44 1008.7
20260507133015 79 23 2.0 8.0 0.00 0.19 0.13 44 1008.9
20260507132016 79 113 3.0 8.0 0.00 0.19 0.13 45 1009.1
20260507131015 79 45 1.0 4.0 0.00 0.19 0.13 46 1009.2
20260507130016 78 113 4.0 7.0 0.00 0.19 0.13 47 1009.5
20260507125015 77 113 3.0 6.0 0.00 0.19 0.13 48 1009.8
20260507124016 78 203 1.0 4.0 0.00 0.19 0.13 48 1009.7
20260507123015 77 203 3.0 6.0 0.00 0.19 0.13 49 1009.8
20260507122016 77 113 2.0 6.0 0.00 0.19 0.13 52 1010.0
20260507121035 77 113 4.0 6.0 0.00 0.19 0.13 52 1010.0
20260507120016 77 90 2.0 6.0 0.00 0.19 0.13 48 1010.1
20260507115015 78 113 3.0 7.0 0.00 0.19 0.13 50 1010.2
20260507114016 78 203 2.0 6.0 0.00 0.19 0.13 50 1010.4
20260507113016 78 203 2.0 6.0 0.00 0.19 0.13 51 1010.5
20260507112017 78 180 1.0 5.0 0.00 0.19 0.13 53 1010.6
20260507111017 76 113 3.0 7.0 0.00 0.19 0.13 56 1010.8
20260507110017 77 113 1.0 4.0 0.00 0.19 0.13 57 1011.1
20260507105037 77 203 1.0 4.0 0.00 0.19 0.13 59 1011.2
20260507104017 75 225 1.0 3.0 0.00 0.19 0.13 59 1011.3
20260507103017 75 203 2.0 5.0 0.00 0.19 0.13 61 1011.5
20260507102017 73 135 1.0 4.0 0.00 0.19 0.13 62 1011.4
20260507101017 73 113 2.0 6.0 0.00 0.19 0.13 63 1011.5
20260507100018 73 90 2.0 6.0 0.00 0.19 0.13 64 1011.4
20260507095017 73 135 3.0 7.0 0.00 0.19 0.13 63 1011.4
20260507094017 72 113 3.0 6.0 0.00 0.19 0.13 63 1011.5
20260507093017 73 113 3.0 6.0 0.00 0.19 0.13 63 1011.4
20260507092017 73 293 1.0 3.0 0.00 0.19 0.13 63 1011.5
20260507091037 72 203 1.0 4.0 0.00 0.19 0.13 66 1011.5
20260507090017 70 135 1.0 4.0 0.00 0.19 0.13 72 1011.5
20260507085017 69 0.0 0.0 0.00 0.19 0.13 73 1011.7
20260507084017 68 113 1.0 3.0 0.00 0.19 0.13 74 1011.7
20260507083017 68 0.0 1.0 0.00 0.19 0.13 75 1011.7
20260507082037 67 0.0 2.0 0.00 0.19 0.13 79 1011.6
20260507081017 66 113 2.0 4.0 0.00 0.19 0.13 77 1011.5
20260507080017 66 113 3.0 6.0 0.00 0.19 0.13 78 1011.3
20260507075037 67 90 3.0 5.0 0.00 0.19 0.13 76 1011.2
20260507074037 68 68 3.0 6.0 0.00 0.19 0.13 68 1011.2
20260507073017 68 68 4.0 8.0 0.00 0.19 0.13 67 1011.1
20260507072017 66 45 4.0 8.0 0.00 0.19 0.13 73 1011.1
20260507071017 65 23 6.0 12.0 0.00 0.19 0.13 72 1011.1
20260507070017 65 23 2.0 4.0 0.00 0.19 0.13 76 1011.3
20260507065017 64 45 3.0 6.0 0.00 0.19 0.13 76 1011.3
20260507064017 63 68 3.0 9.0 0.00 0.19 0.13 77 1011.3
20260507063017 62 23 4.0 6.0 0.00 0.19 0.13 81 1011.3
20260507062017 61 68 1.0 2.0 0.00 0.19 0.13 84 1011.4
20260507061017 61 0.0 3.0 0.00 0.19 0.13 81 1011.4
20260507060017 61 45 2.0 5.0 0.00 0.19 0.13 82 1011.3
20260507055017 61 68 2.0 5.0 0.00 0.19 0.13 82 1011.2
20260507054057 61 45 5.0 10.0 0.00 0.19 0.13 82 1011.1
20260507053017 60 23 7.0 11.0 0.01 0.19 0.13 85 1011.1
20260507052017 60 23 5.0 10.0 0.01 0.19 0.13 86 1011.2
20260507051017 60 23 7.0 16.0 0.01 0.19 0.13 85 1011.3
20260507050018 59 23 7.0 16.0 0.01 0.19 0.13 87 1011.2
20260507045037 59 45 8.0 15.0 0.01 0.19 0.13 87 1011.1
20260507044017 59 68 4.0 11.0 0.01 0.19 0.13 88 1011.2
20260507043037 59 68 6.0 11.0 0.00 0.18 0.13 88 1011.0
20260507042016 59 68 4.0 8.0 0.00 0.18 0.13 89 1011.2
20260507041017 59 45 4.0 8.0 0.00 0.18 0.13 89 1011.3
20260507040037 59 45 4.0 7.0 0.00 0.18 0.13 88 1011.5
20260507035017 59 23 6.0 11.0 0.00 0.18 0.13 88 1011.7
20260507034016 58 23 6.0 12.0 0.00 0.18 0.13 89 1012.1
20260507033016 58 45 4.0 9.0 0.00 0.18 0.13 90 1012.3
20260507032036 58 45 1.0 8.0 0.01 0.18 0.13 90 1012.7
20260507031017 58 68 1.0 6.0 0.01 0.18 0.13 91 1012.6
20260507030017 58 45 3.0 6.0 0.02 0.18 0.13 91 1012.4
20260507025016 58 45 3.0 6.0 0.03 0.18 0.13 92 1012.3
20260507024017 57 68 3.0 6.0 0.04 0.18 0.13 91 1012.2
20260507023017 58 68 2.0 5.0 0.05 0.18 0.13 92 1012.2
20260507022036 57 0 4.0 7.0 0.04 0.17 0.12 92 1012.3
20260507021017 57 68 3.0 6.0 0.04 0.17 0.12 92 1012.3
20260507020016 57 338 3.0 7.0 0.02 0.16 0.10 92 1012.1
20260507015016 57 338 1.0 3.0 0.02 0.15 0.09 91 1012.1
20260507014016 57 135 1.0 1.0 0.01 0.14 0.09 91 1012.2
20260507013016 57 0.0 2.0 0.00 0.13 0.08 92 1012.1
20260507012016 57 0.0 2.0 0.00 0.13 0.08 92 1012.0
20260507011016 57 0.0 1.0 0.01 0.13 0.08 91 1011.9
20260507010036 57 68 2.0 5.0 0.02 0.13 0.08 92 1011.8
20260507005016 57 68 2.0 4.0 0.02 0.13 0.08 92 1011.7